Regional Weather Roundup
Issued by NWS Charleston, SC

Current Version | Previous Version | Graphics & Text | Print | Product List | Glossary On
Versions: 1 2 3 4 5 6 7 8 9 10 11 12 13 14 15 16 17 18 19 20 21 22 23 24 25 26 27 28 29 30 31 32 33 34 35 36 37 38 39 40 41 42 43 44 45 46 47 48 49 50
000
ASUS42 KCHS 241812
RWRCHS

REGIONAL WEATHER ROUNDUP
NATIONAL WEATHER SERVICE CHARLESTON SC
200 PM EDT SUN MAY 24 2015

NOTE: "FAIR" INDICATES FEW OR NO CLOUDS BELOW 12,000 FEET WITH NO
SIGNIFICANT WEATHER AND/OR OBSTRUCTIONS TO VISIBILITY.

NOT ALL STATIONS ARE QUALITY CONTROLLED BY THE NATIONAL
WEATHER SERVICE. USE DATA WITH CAUTION...ESPECIALLY
DEWPOINT OBSERVATIONS.

SCZ027-030-031-034>040-042>050-241900-
...SOUTHEAST SOUTH CAROLINA...

CITY           SKY/WX    TMP DP  RH WIND       PRES   REMARKS
N CHARLESTON   PTSUNNY   80  58  46 E15       30.35F
6HR MIN TEMP:  69; 6HR MAX TEMP:  81;

WATERFRONT PAR   N/A     76  62  61 E14       30.32F
MOUNT PLEASANT LGT RAIN  79  61  53 E9G18     30.35F
JOHNS ISLAND   MOCLDY    81  63  54 E13G21    30.36S
PINOPOLIS        N/A     81  57  44 SE6       30.27F
MONCKS CORNER  MOCLDY    81  55  41 SE7G20    30.35S
SUMMERVILLE    MOCLDY    81  57  44 E8        30.36S
BEAUFORT MCAS  PTSUNNY   81  61  50 E9G20     30.34F
6HR MIN TEMP:  71; 6HR MAX TEMP:  81;

BEAUFORT ARPT  CLOUDY    77  63  61 E9G20     30.34F HAZE
HILTON HEAD IS MOSUNNY   81  64  57 NE13G20   30.34F
WALTERBORO     MOCLDY    81  55  41 E12       30.35S
ALLENDALE      MOCLDY    81  57  44 SE8       30.32F

...SOUTHERN MIDLANDS AND PEE DEE...

CITY           SKY/WX    TMP DP  RH WIND       PRES   REMARKS
GEORGETOWN     NOT AVBL
KINGSTREE      NOT AVBL
ORANGEBURG     PTSUNNY   81  56  42 SE8       30.35F
6HR MIN TEMP:  66; 6HR MAX TEMP:  81;

BARNWELL       MOCLDY    82  55  39 NE12      30.34F
AIKEN          FAIR      81  46  30 E9G16     30.38S
MANNING        FAIR      81  52  36 SE6       30.35F
COLUMBIA       PTSUNNY   83  54  36 NE7G18    30.34F
6HR MIN TEMP:  63; 6HR MAX TEMP:  83;

SUMTER         NOT AVBL
FLORENCE       MOSUNNY   83  57  41 S10       30.35F
6HR MIN TEMP:  64; 6HR MAX TEMP:  84;

MYRTLE BEACH   MOSUNNY   81  59  47 SE15      30.40F
N MYRTLE BEACH SUNNY     79  59  50 SE12      30.38F
6HR MIN TEMP:  71; 6HR MAX TEMP:  80;


$$

GAZ063-065-086>088-099>101-113>116-118-119-134>141-150-241900-
...SOUTHEAST GEORGIA...

CITY           SKY/WX    TMP DP  RH WIND       PRES   REMARKS
SAVANNAH ARPT  PTSUNNY   82  60  47 E13G20    30.33F
6HR MIN TEMP:  71; 6HR MAX TEMP:  83;

HUNTER AAF     MOSUNNY   81  63  54 E12G21    30.30F
FORT STEWART   NOT AVBL
STATESBORO     MOSUNNY   83  62  48 SE7       30.31F
SYLVANIA       MOCLDY    84  61  45 SE7       30.33F
CLAXTON        FAIR      82  61  47 E10G16    30.30F

...CSRA...CENTRAL AND FAR SOUTHEAST GEORGIA...

CITY           SKY/WX    TMP DP  RH WIND       PRES   REMARKS
THOMSON        SUNNY     83  61  46 E8        30.37F
AUGUSTA-BUSH   SUNNY     84  56  38 S8        30.32F
6HR MIN TEMP:  65; 6HR MAX TEMP:  84;

AUGUSTA-DANIEL MOSUNNY   83  55  38 MISG      30.34F
SWAINSBORO     FAIR      86  59  39 E8        30.32F
VIDALIA        CLOUDY    82  57  42 NE10      30.30F
EASTMAN        MOCLDY    85  61  44 E6        30.31F
HAZLEHURST     MOCLDY    86  59  40 E8        30.28F
ALMA           PTSUNNY   82  60  47 VRB7      30.29S
6HR MIN TEMP:  68; 6HR MAX TEMP:  84;

WAYCROSS       MOSUNNY   86  63  46 E9G17     30.28S
JESUP          FAIR      86  63  45 E12G18    30.29F
BAXLEY         PTSUNNY   84  59  42 NE8       30.29S
BRUNSWICK      PTSUNNY   81  63  54 E16G23    30.31S
SAINT SIMONS   NOT AVBL

$$

SCZ027-028-034-036>038-045-046-048>050-GAZ119-141-241900-
...LAKE AND SUPPLEMENTAL COASTAL OBSERVATIONS...

STATION/POSITION TIME  TEMP    WIND        PRES    WAVE   SWELL
                       AIR SEA DIR/SP/G            HT/PER HT/PER/DIR
                 (UTC) (F)     (DEG/KT/KT) (MB)    (FT/S) (FT/S/D)
UPR LAKE MARION  NOT AVBL
WINYAH BAY       1645   75     100/ 12     1028.0
LAKE MURRAY      1700   77     130/  7/ 10 1027.4F
ACE BASIN NERRS  NOT AVBL
FORT PULASKI     1700   76 77   70/ 15/ 19 1027.8F
SAPELO ISLAND    1700   80      70/ 13     1027.0S

$$

ANZ835-935-AMZ111-154-330-350-352-354-370-450-454-472-241900-
...C-MAN AND BUOY OBSERVATIONS...

STATION/POSITION TIME  TEMP    WIND        PRES    WAVE   SWELL
                       AIR SEA DIR/SP/G            HT/PER HT/PER/DIR
                 (UTC) (F)     (DEG/KT/KT) (MB)    (FT/S) (FT/S/D)
BUOY 41004       1750   76 75   80/ 16/ 17 1026.9F   4/ 8   2/ 8
BUOY 41008       1750   75 75   60/ 10/ 14 1026.4F   4/ 8   3/110/ 8
FOLLY BEACH CMAN 1700   76      80/ 14/ 17 1028.1F
CAPERS NEARSHORE 1708   75      90/ 14/ 17 1028.2F
FRIPP NEARSHORE  1700   76      80/ 16/ 19 1026.5F


STATION/POSITION TIME  TEMP    WIND        PRES    WAVE   SWELL
                       AIR SEA DIR/SP/G            HT/PER HT/PER/DIR
                 (UTC) (F)     (DEG/KT/KT) (MB)    (FT/S) (FT/S/D)
5E ST. MARYS GA  1721      78                N/A     4/ 8
FRYING PAN BUOY  1750   76 74  110/ 14/ 16 1029.0F   4/ 6   2/140/ 9
BUOY 41025       1750   73 78   50/  4/  6 1029.6F   2/ 7   2/ 60/ 7
CAPE LOOKOUT NC  1700   74      70/  6/  8 1029.4F
BUOY 41002       1750   72 74   70/ 17/ 21 1028.4R   6/ 7   2/180/13
BUOY 41010       1720   78 80   90/ 10/ 12 1023.9F
ST AUGUSTINE FL  1800   77 77   40/ 11/ 11 1025.4F


$$



USA.gov is the U.S. government's official web portal to all federal, state and local government web resources and services.